Location: Chmeln�
(49.6483°N, 14.9871°E)
Time: 05:50:09
(UTC+00:00)

SL-14 R/B - Pass Details

Date: 18 September 2020
Orbit: 519 x 554 km, 82.4° (Epoch: 22 October)

Event Time Altitude Azimuth Distance (km) Brightness Sun altitude
Rises 19:10:48 0° 355° (N) 2,672 7.3 -20.2°
Reaches altitude 10° 19:13:02 10° 3° (N) 1,782 6.2 -20.5°
Enters shadow 19:16:03 37° 46° (NE) 840 4.1 -20.9°
